Regional Weather Roundup
Issued by NWS

Home | Current Version | Previous Version | Graphics & Text | Print | Product List | Glossary On
Versions: 1 2 3 4 5 6 7 8 9 10 11 12 13 14 15 16 17 18 19 20 21 22 23 24 25 26 27 28 29 30 31 32 33 34 35 36 37 38 39 40 41 42 43 44 45 46 47 48 49 50
000
ASUS43 KFSD 271810
RWRSD

WEATHER ROUNDUP FOR SOUTH DAKOTA
NATIONAL WEATHER SERVICE SIOUX FALLS SD
1200 PM CST THU NOV 27 2014

NOTE: "FAIR" INDICATES FEW OR NO CLOUDS BELOW 12,000 FEET WITH NO
SIGNIFICANT WEATHER AND/OR OBSTRUCTIONS TO VISIBILITY.


SDZ001>005-009-010-012>017-271900-
NORTHWEST AND NORTH CENTRAL SOUTH DAKOTA

CITY           SKY/WX    TMP DP  RH WIND       PRES   REMARKS
BUFFALO          N/A     22  18  85 S14       29.91F WCI   9
FAITH            N/A     18  12  77 SE16G25   30.07F WCI   3
MOBRIDGE       CLOUDY    12   4  70 SE18      30.18F WCI  -6
$$

SDZ012>016-024>037-041>051-057-063-072>074-271900-
SOUTHWEST AND SOUTH CENTRAL SOUTH DAKOTA

CITY           SKY/WX    TMP DP  RH WIND       PRES   REMARKS
RAPID CTY ARPT CLOUDY    24  21  88 SE10      30.02F WCI  14
PIERRE         CLOUDY    19  11  70 SE16G25   30.20F WCI   4
CUSTER         PTSUNNY   42  25  50 W5        30.01F
ELLSWORTH AFB  CLOUDY    24  23  95 S13       30.01F WCI  13
PHILIP         CLOUDY    24  15  68 E14       30.11F WCI  12
PINE RIDGE     PTSUNNY   40  27  59 SW7       30.05F
SPEARFISH      FAIR      28  28 100 W3        29.97F
WINNER         MOCLDY    24  12  60 SE17      30.21F WCI  11
$$

SDZ004>011-016>023-039-040-271900-
NORTHEAST SOUTH DAKOTA

CITY           SKY/WX    TMP DP  RH WIND       PRES   REMARKS
ABERDEEN       SUNNY      4  -5  66 S13       30.37F WCI -13
WATERTOWN      SUNNY      2  -6  69 S13       30.35F WCI -15
SISSETON         N/A      1  -6  72 S10       30.42F WCI -15
$$

SDZ017-020-022-023-036>040-048>070-271900-
SOUTHEAST SOUTH DAKOTA

CITY           SKY/WX    TMP DP  RH WIND       PRES   REMARKS
SIOUX FALLS    PTSUNNY    7  -5  57 SE9       30.42F WCI  -7
HURON          CLOUDY     8  -5  55 SE9       30.38F WCI  -5
CHAMBERLAIN    PTSUNNY   17   7  66 SE16      30.26F WCI   1
MITCHELL       CLOUDY    12   1  61 SE16      30.39F WCI  -5
YANKTON        CLOUDY    12   3  67 E9        30.43F WCI   0
$$

ABBREVIATIONS USED IN REMARKS
   TC - TEMPERATURE IN CELSIUS
  WCI - WIND CHILL INDEX
   HX - HEAT INDEX
  VSB - VISIBILITY




USA.gov is the U.S. government's official web portal to all federal, state and local government web resources and services.